Zurück zum Katalog

SCOUT A DEB

AktivPO
NORAD 2140·DEBRIS·🇺🇸 United States

Gestartet Jan 28, 1966 von Vandenberg Space Force Base

Loading…

Nächste Überflüge (nächste 24 Stunden)

TLE

AktuellSource: Space-Track

Epoche: Sep 14, 2026, 03:24 UTC

1 02140U 66005C   26257.14189182  .00000195  00000-0  22495-3 0  9990
2 02140  89.9635  50.2240 0314109 288.8149  67.9176 13.48459510970440

Verfolge SCOUT A DEB in Echtzeit mit AllMySat

Download on the App Store